Location: Kawakawa
(35.3830°S, 174.0670°E)
Time: 12:45:32
(UTC+13:00)

Altair - Pass Details

Date: 14 December 2019
Orbit: 1502 x 1682 km, 47.2° (Epoch: 18 January)

Event Time Altitude Azimuth Distance (km) Brightness Sun altitude
Rises 07:28:47 0° 339° (NNW) 4,676 9.7 15.3°
Reaches altitude 10° 07:32:05 10° 347° (NNW) 3,721 9.3 15.9°
Maximum altitude 07:40:27 37° 50° (NE) 2,296 9.1 17.5°
Drops below altitude 10° 07:49:09 10° 112° (ESE) 3,874 11.9 19.2°
Sets 07:52:38 0° 120° (ESE) 4,889 11.5 19.9°
